Location: Unspecified
(0.0000°N, 0.0000°E)
Time: 21:57:30
(UTC+02:00)

ADEOS II - Visible Passes

Search period start: 05 May 2016 00:00
Search period end: 15 May 2016 00:00
Orbit: 799 x 803 km, 98.3° (Epoch: 04 May)

Date Brightness Start Highest point End Pass type
(mag) Time Alt. Az. Time Alt. Az. Time Alt. Az.
05 May 4.1 05:26:35 10° NE 05:30:40 23° ESE 05:32:47 18° SE visible
05 May 3.3 07:06:09 10° NNW 07:10:07 22° WNW 07:13:44 12° SW visible
06 May 4.9 05:03:19 10° E 05:04:27 11° ESE 05:05:35 10° ESE visible
06 May 2.4 06:38:54 10° N 06:43:52 45° WNW 06:47:04 21° SW visible
07 May 2.0 06:12:22 10° NNE 06:17:37 86° ESE 06:20:25 29° S visible
08 May 3.2 05:46:28 10° NNE 05:51:22 41° ESE 05:53:45 26° SSE visible
08 May 3.9 07:28:55 10° NW 07:30:49 12° WNW 07:32:42 10° W visible
09 May 4.3 05:21:21 10° NE 05:25:08 20° ESE 05:27:05 17° SE visible
09 May 3.1 07:00:20 10° NNW 07:04:35 25° WNW 07:08:02 14° SW visible
10 May 2.2 06:33:16 10° N 06:38:20 52° WNW 06:41:22 24° SW visible
11 May 2.1 06:06:51 10° NNE 06:12:05 76° ESE 06:14:43 30° S visible
12 May 3.4 05:41:04 10° NE 05:45:51 36° ESE 05:48:03 25° SSE visible
12 May 3.8 07:22:40 10° NW 07:25:17 14° WNW 07:27:56 10° WSW visible
13 May 4.4 05:16:12 10° ENE 05:19:36 18° ESE 05:21:22 15° SE visible
13 May 3.0 06:54:35 10° NNW 06:59:03 29° WNW 07:02:20 16° SW visible
14 May 2.1 06:27:38 10° N 06:32:48 60° WNW 06:35:40 26° SSW visible
